,,,PA_Meas_PMT16A,,PR_Meas_QMR101_102,,RH_Meas_QMH101,,SR_Meas_QMS101,,TA_Meas_QMH101,,GenWind,,GenWind,
date,time,status,PA,status,PR,status,RH,status,SR,status,TA,status,DirAvg,status,SpdAvg,
2011-06-15, 00:00:05,VALID,1004.83,VALID,0,VALID,85.8173,VALID,0,VALID,27.6941,VALID,273,VALID,0,
2011-06-15, 00:01:05,VALID,1004.83,VALID,0,VALID,85.1612,VALID,0,VALID,27.6941,VALID,254,VALID,0,
2011-06-15, 00:02:05,VALID,1004.84,VALID,0,VALID,84.94,VALID,0,VALID,27.7136,VALID,247,VALID,0,
2011-06-15, 00:03:05,VALID,1004.83,VALID,0,VALID,83.254,VALID,0,VALID,27.7351,VALID,269,VALID,0,
2011-06-15, 00:04:05,VALID,1004.8,VALID,0,VALID,82.3232,VALID,0,VALID,27.7136,VALID,270,VALID,0,
2011-06-15, 00:05:05,VALID,1004.83,VALID,0,VALID,82.308,VALID,0,VALID,27.733,VALID,268,VALID,0,
2011-06-15, 00:06:05,VALID,1004.78,VALID,0,VALID,82.5674,VALID,0,VALID,27.7525,VALID,248,VALID,0,
2011-06-15, 00:07:05,VALID,1004.81,VALID,0,VALID,82.575,VALID,0.100563,VALID,27.7741,VALID,234,VALID,0,
2011-06-15, 00:08:05,VALID,1004.79,VALID,0,VALID,82.7352,VALID,0,VALID,27.7525,VALID,260,VALID,0,
2011-06-15, 00:09:05,VALID,1004.77,VALID,0,VALID,83.1243,VALID,0,VALID,27.7546,VALID,274,VALID,0,
2011-06-15, 00:10:05,VALID,1004.76,VALID,0,VALID,83.46,VALID,0,VALID,27.7546,VALID,223,VALID,0,
2011-06-15, 00:11:05,VALID,1004.77,VALID,0,VALID,82.9107,VALID,0,VALID,27.7351,VALID,274,VALID,0,
2011-06-15, 00:12:05,VALID,1004.75,VALID,0,VALID,83.1548,VALID,0,VALID,27.7372,VALID,227,VALID,0,
2011-06-15, 00:13:05,VALID,1004.77,VALID,0,VALID,83.3608,VALID,0,VALID,27.7157,VALID,284,VALID,0,
2011-06-15, 00:14:05,VALID,1004.76,VALID,0,VALID,81.4459,VALID,0,VALID,27.7157,VALID,238,VALID,0,
2011-06-15, 00:15:05,VALID,1004.75,VALID,0,VALID,80.8204,VALID,0,VALID,27.7351,VALID,283,VALID,0,
2011-06-15, 00:16:05,VALID,1004.81,VALID,0,VALID,80.6068,VALID,0,VALID,27.7157,VALID,251,VALID,0,
2011-06-15, 00:17:05,VALID,1004.77,VALID,0,VALID,80.149,VALID,0,VALID,27.6941,VALID,251,VALID,0,
2011-06-15, 00:18:05,VALID,1004.77,VALID,0,VALID,80.5839,VALID,0,VALID,27.7157,VALID,234,VALID,0,
2011-06-15, 00:19:05,VALID,1004.78,VALID,0,VALID,79.6837,VALID,0,VALID,27.6962,VALID,238,VALID,0,
2011-06-15, 00:20:05,VALID,1004.79,VALID,0,VALID,79.4929,VALID,0,VALID,27.7157,VALID,309,VALID,0,
2011-06-15, 00:21:05,VALID,1004.79,VALID,0,VALID,79.5082,VALID,0,VALID,27.7351,VALID,250,VALID,0,
2011-06-15, 00:22:05,VALID,1004.82,VALID,0,VALID,79.142,VALID,0,VALID,27.7351,VALID,251,VALID,0,
2011-06-15, 00:23:05,VALID,1004.79,VALID,0,VALID,79.6303,VALID,0,VALID,27.7525,VALID,271,VALID,0,
2011-06-15, 00:24:05,VALID,1004.75,VALID,0,VALID,79.6989,VALID,0,VALID,27.7546,VALID,340,VALID,0,
2011-06-15, 00:25:05,VALID,1004.78,VALID,0,VALID,79.8744,VALID,0,VALID,27.7546,VALID,296,VALID,0,
2011-06-15, 00:26:05,VALID,1004.77,VALID,0,VALID,79.7752,VALID,0,VALID,27.7546,VALID,279,VALID,0,
2011-06-15, 00:27:05,VALID,1004.73,VALID,0,VALID,79.5997,VALID,0,VALID,27.7351,VALID,262,VALID,0,
2011-06-15, 00:28:05,VALID,1004.74,VALID,0,VALID,79.9583,VALID,0,VALID,27.7351,VALID,215,VALID,0,
2011-06-15, 00:29:05,VALID,1004.72,VALID,0,VALID,79.9202,VALID,0,VALID,27.6941,VALID,232,VALID,0,
2011-06-15, 00:30:05,VALID,1004.69,VALID,0,VALID,80.5152,VALID,0,VALID,27.7157,VALID,243,VALID,0,
2011-06-15, 00:31:05,VALID,1004.72,VALID,0,VALID,81.1789,VALID,0,VALID,27.6962,VALID,49,VALID,0,
2011-06-15, 00:32:05,VALID,1004.71,VALID,0,VALID,80.9882,VALID,0,VALID,27.6962,VALID,242,VALID,0,
2011-06-15, 00:33:05,VALID,1004.66,VALID,0,VALID,80.3245,VALID,0,VALID,27.6962,VALID,237,VALID,0,
2011-06-15, 00:34:05,VALID,1004.66,VALID,0,VALID,80.561,VALID,0,VALID,27.6962,VALID,288,VALID,0,
2011-06-15, 00:35:05,VALID,1004.66,VALID,0,VALID,80.294,VALID,0,VALID,27.6962,VALID,209,VALID,0,
2011-06-15, 00:36:05,VALID,1004.67,VALID,0,VALID,80.21,VALID,0,VALID,27.6962,VALID,261,VALID,0,
2011-06-15, 00:37:05,VALID,1004.67,VALID,0,VALID,79.7371,VALID,0,VALID,27.6767,VALID,249,VALID,0,
2011-06-15, 00:38:04,VALID,1004.66,VALID,0,VALID,79.7752,VALID,0,VALID,27.6551,VALID,331,VALID,0,
2011-06-15, 00:39:04,VALID,1004.65,VALID,0,VALID,79.3251,VALID,0,VALID,27.6962,VALID,251,VALID,0,
2011-06-15, 00:40:04,VALID,1004.64,VALID,0,VALID,79.8744,VALID,0,VALID,27.6941,VALID,245,VALID,0,
2011-06-15, 00:41:04,VALID,1004.62,VALID,0,VALID,80.2406,VALID,0.100563,VALID,27.6962,VALID,155,VALID,0,
2011-06-15, 00:42:04,VALID,1004.59,VALID,0,VALID,80.1795,VALID,0,VALID,27.6572,VALID,267,VALID,0,
2011-06-15, 00:43:04,VALID,1004.61,VALID,0,VALID,79.5769,VALID,0,VALID,27.6767,VALID,248,VALID,0,
2011-06-15, 00:44:04,VALID,1004.59,VALID,0,VALID,80.0422,VALID,0,VALID,27.6572,VALID,37,VALID,0,
2011-06-15, 00:45:04,VALID,1004.62,VALID,0,VALID,79.9812,VALID,0,VALID,27.6377,VALID,292,VALID,0,
2011-06-15, 00:46:04,VALID,1004.61,VALID,0,VALID,80.21,VALID,0,VALID,27.6377,VALID,260,VALID,0,
2011-06-15, 00:47:04,VALID,1004.55,VALID,0,VALID,79.6913,VALID,0,VALID,27.6182,VALID,306,VALID,0,
2011-06-15, 00:48:04,VALID,1004.55,VALID,0,VALID,79.6226,VALID,0,VALID,27.6377,VALID,265,VALID,0,
2011-06-15, 00:49:04,VALID,1004.52,VALID,0,VALID,80.0651,VALID,0,VALID,27.6182,VALID,311,VALID,0,
2011-06-15, 00:50:04,VALID,1004.47,VALID,0,VALID,80.2711,VALID,0,VALID,27.5966,VALID,236,VALID,0,
2011-06-15, 00:51:04,VALID,1004.45,VALID,0,VALID,80.416,VALID,0,VALID,27.5987,VALID,266,VALID,0,
2011-06-15, 00:52:04,VALID,1004.43,VALID,0,VALID,80.3092,VALID,0,VALID,27.5987,VALID,285,VALID,0,
2011-06-15, 00:53:04,VALID,1004.43,VALID,0,VALID,79.1802,VALID,0,VALID,27.5987,VALID,263,VALID,0,
2011-06-15, 00:54:04,VALID,1004.39,VALID,0,VALID,78.9131,VALID,0,VALID,27.5987,VALID,288,VALID,0,
2011-06-15, 00:55:04,VALID,1004.41,VALID,0,VALID,77.2729,VALID,0,VALID,27.6182,VALID,261,VALID,0,
2011-06-15, 00:56:04,VALID,1004.39,VALID,0,VALID,77.334,VALID,0,VALID,27.6572,VALID,235,VALID,0,
2011-06-15, 00:57:04,VALID,1004.41,VALID,0,VALID,77.9824,VALID,0,VALID,27.6572,VALID,276,VALID,0,
2011-06-15, 00:58:04,VALID,1004.39,VALID,0,VALID,77.8756,VALID,0,VALID,27.6377,VALID,295,VALID,0,
2011-06-15, 00:59:04,VALID,1004.4,VALID,0,VALID,78.0129,VALID,0,VALID,27.6182,VALID,254,VALID,0,
2011-06-15, 01:00:04,VALID,1004.38,VALID,0,VALID,77.5476,VALID,0,VALID,27.5987,VALID,284,VALID,0,
2011-06-15, 01:01:04,VALID,1004.43,VALID,0,VALID,76.8686,VALID,0,VALID,27.6398,VALID,247,VALID,0,
2011-06-15, 01:02:04,VALID,1004.37,VALID,0,VALID,77.0212,VALID,0,VALID,27.6182,VALID,297,VALID,0,
2011-06-15, 01:03:04,VALID,1004.36,VALID,0,VALID,77.189,VALID,0,VALID,27.6182,VALID,277,VALID,0,
2011-06-15, 01:04:04,VALID,1004.4,VALID,0,VALID,77.7307,VALID,0,VALID,27.6398,VALID,281,VALID,0,
2011-06-15, 01:05:04,VALID,1004.36,VALID,0,VALID,78.2418,VALID,0,VALID,27.6377,VALID,338,VALID,0,
2011-06-15, 01:06:04,VALID,1004.37,VALID,0,VALID,77.8527,VALID,0,VALID,27.5966,VALID,307,VALID,0,
2011-06-15, 01:07:04,VALID,1004.37,VALID,0,VALID,77.2119,VALID,0,VALID,27.6377,VALID,266,VALID,0,
2011-06-15, 01:08:04,VALID,1004.35,VALID,0,VALID,76.9754,VALID,0,VALID,27.6593,VALID,242,VALID,0,
2011-06-15, 01:09:04,VALID,1004.38,VALID,0,VALID,76.4719,VALID,0,VALID,27.6572,VALID,263,VALID,0,
2011-06-15, 01:10:04,VALID,1004.37,VALID,0,VALID,76.922,VALID,0,VALID,27.6572,VALID,228,VALID,0,
2011-06-15, 01:11:04,VALID,1004.38,VALID,0,VALID,77.5857,VALID,0,VALID,27.6593,VALID,268,VALID,0,
2011-06-15, 01:12:04,VALID,1004.36,VALID,0,VALID,78.3333,VALID,0,VALID,27.6377,VALID,261,VALID,0,
2011-06-15, 01:13:04,VALID,1004.35,VALID,0,VALID,78.074,VALID,0,VALID,27.5792,VALID,244,VALID,0,
2011-06-15, 01:14:04,VALID,1004.34,VALID,0,VALID,79.0733,VALID,0,VALID,27.5987,VALID,264,VALID,0,
2011-06-15, 01:15:04,VALID,1004.31,VALID,0,VALID,79.2641,VALID,0,VALID,27.5598,VALID,252,VALID,0,
2011-06-15, 01:16:04,VALID,1004.25,VALID,0,VALID,79.676,VALID,0,VALID,27.5403,VALID,299,VALID,0,
2011-06-15, 01:17:04,VALID,1004.29,VALID,0,VALID,80.4923,VALID,0,VALID,27.4992,VALID,197,VALID,0,
2011-06-15, 01:18:04,VALID,1004.26,VALID,0,VALID,82.4148,VALID,0,VALID,27.5208,VALID,226,VALID,0,
2011-06-15, 01:19:04,VALID,1004.22,VALID,0,VALID,82.8268,VALID,0,VALID,27.5208,VALID,252,VALID,0,
2011-06-15, 01:20:04,VALID,1004.22,VALID,0,VALID,83.8872,VALID,0,VALID,27.5208,VALID,208,VALID,0,
2011-06-15, 01:21:04,VALID,1004.17,VALID,0,VALID,84.261,VALID,0,VALID,27.5208,VALID,216,VALID,0,
2011-06-15, 01:22:04,VALID,1004.14,VALID,0,VALID,83.8338,VALID,0,VALID,27.5208,VALID,289,VALID,0,
2011-06-15, 01:23:04,VALID,1004.15,VALID,0,VALID,83.8643,VALID,0,VALID,27.5403,VALID,307,VALID,0,
2011-06-15, 01:24:04,VALID,1004.08,VALID,0,VALID,83.8414,VALID,0,VALID,27.5208,VALID,236,VALID,0,
2011-06-15, 01:25:04,VALID,1004.12,VALID,0,VALID,83.8872,VALID,0,VALID,27.5208,VALID,334,VALID,0,
2011-06-15, 01:26:04,VALID,1004.04,VALID,0,VALID,83.46,VALID,0,VALID,27.5208,VALID,294,VALID,0,
2011-06-15, 01:27:04,VALID,1004.04,VALID,0,VALID,83.521,VALID,0,VALID,27.5013,VALID,248,VALID,0,
2011-06-15, 01:28:04,VALID,1003.98,VALID,0,VALID,83.4142,VALID,0,VALID,27.5013,VALID,276,VALID,0,
2011-06-15, 01:29:04,VALID,1003.95,VALID,0,VALID,83.3226,VALID,0,VALID,27.5013,VALID,244,VALID,0,
2011-06-15, 01:30:04,VALID,1003.97,VALID,0,VALID,83.1548,VALID,0,VALID,27.5013,VALID,224,VALID,0,
2011-06-15, 01:31:04,VALID,1003.93,VALID,0,VALID,83.7422,VALID,0,VALID,27.4818,VALID,273,VALID,0,
2011-06-15, 01:32:04,VALID,1003.93,VALID,0,VALID,83.2769,VALID,0,VALID,27.4818,VALID,203,VALID,0,
2011-06-15, 01:33:04,VALID,1003.88,VALID,0,VALID,80.9806,VALID,0,VALID,27.4428,VALID,257,VALID,0,
2011-06-15, 01:34:04,VALID,1003.9,VALID,0,VALID,79.7294,VALID,0,VALID,27.4428,VALID,221,VALID,0,
2011-06-15, 01:35:04,VALID,1003.87,VALID,0,VALID,79.348,VALID,0,VALID,27.4428,VALID,248,VALID,0,
2011-06-15, 01:36:04,VALID,1003.9,VALID,0,VALID,79.6608,VALID,0,VALID,27.4644,VALID,272,VALID,0,
2011-06-15, 01:37:04,VALID,1003.83,VALID,0,VALID,79.1115,VALID,0,VALID,27.4408,VALID,255,VALID,0,
2011-06-15, 01:38:04,VALID,1003.83,VALID,0,VALID,78.5088,VALID,0,VALID,27.4623,VALID,289,VALID,0,
2011-06-15, 01:39:04,VALID,1003.79,VALID,0,VALID,78.4707,VALID,0,VALID,27.4623,VALID,269,VALID,0,
2011-06-15, 01:40:04,VALID,1003.81,VALID,0,VALID,78.2037,VALID,0,VALID,27.4623,VALID,210,VALID,0,
2011-06-15, 01:41:04,VALID,1003.76,VALID,0,VALID,77.7993,VALID,0,VALID,27.4623,VALID,296,VALID,0,
2011-06-15, 01:42:04,VALID,1003.75,VALID,0,VALID,77.6544,VALID,0,VALID,27.4623,VALID,294,VALID,0,
2011-06-15, 01:43:04,VALID,1003.74,VALID,0,VALID,77.7993,VALID,0,VALID,27.4623,VALID,230,VALID,0,
2011-06-15, 01:44:04,VALID,1003.73,VALID,0,VALID,78.1197,VALID,0,VALID,27.4428,VALID,270,VALID,0,
2011-06-15, 01:45:04,VALID,1003.67,VALID,0,VALID,78.4554,VALID,0,VALID,27.4623,VALID,268,VALID,0,
2011-06-15, 01:46:04,VALID,1003.73,VALID,0,VALID,79.142,VALID,0,VALID,27.4428,VALID,343,VALID,0,
2011-06-15, 01:47:04,VALID,1003.71,VALID,0,VALID,79.2336,VALID,0,VALID,27.4428,VALID,265,VALID,0,
2011-06-15, 01:48:04,VALID,1003.72,VALID,0,VALID,79.1802,VALID,0,VALID,27.4233,VALID,245,VALID,0,
2011-06-15, 01:49:04,VALID,1003.69,VALID,0,VALID,79.4853,VALID,0,VALID,27.4233,VALID,221,VALID,0,
2011-06-15, 01:50:04,VALID,1003.65,VALID,0,VALID,79.8286,VALID,0,VALID,27.4039,VALID,282,VALID,0,
2011-06-15, 01:51:04,VALID,1003.64,VALID,0,VALID,80.5152,VALID,0,VALID,27.4039,VALID,249,VALID,0,
2011-06-15, 01:52:04,VALID,1003.68,VALID,0,VALID,80.9729,VALID,0,VALID,27.3823,VALID,310,VALID,0,
2011-06-15, 01:53:04,VALID,1003.63,VALID,0,VALID,81.034,VALID,0,VALID,27.3823,VALID,248,VALID,0,
2011-06-15, 01:54:04,VALID,1003.62,VALID,0,VALID,80.889,VALID,0,VALID,27.4039,VALID,283,VALID,0,
2011-06-15, 01:55:04,VALID,1003.58,VALID,0,VALID,81.0111,VALID,0,VALID,27.4233,VALID,281,VALID,0,
2011-06-15, 01:56:04,VALID,1003.57,VALID,0,VALID,80.2177,VALID,0,VALID,27.3628,VALID,275,VALID,0,
2011-06-15, 01:57:04,VALID,1003.58,VALID,0,VALID,79.8057,VALID,0,VALID,27.4039,VALID,286,VALID,0,
2011-06-15, 01:58:04,VALID,1003.56,VALID,0,VALID,79.348,VALID,0,VALID,27.4039,VALID,245,VALID,0,
2011-06-15, 01:59:04,VALID,1003.57,VALID,0,VALID,79.5616,VALID,0,VALID,27.4428,VALID,318,VALID,0,
2011-06-15, 02:00:04,VALID,1003.52,VALID,0,VALID,78.2037,VALID,0,VALID,27.4233,VALID,233,VALID,0,
2011-06-15, 02:01:04,VALID,1003.56,VALID,0,VALID,78.3639,VALID,0,VALID,27.4233,VALID,265,VALID,0,
2011-06-15, 02:02:04,VALID,1003.52,VALID,0,VALID,78.5927,VALID,0,VALID,27.4233,VALID,253,VALID,0,
2011-06-15, 02:03:04,VALID,1003.53,VALID,0,VALID,77.9443,VALID,0,VALID,27.4233,VALID,270,VALID,0,
2011-06-15, 02:04:04,VALID,1003.52,VALID,0,VALID,78.3944,VALID,0,VALID,27.3844,VALID,250,VALID,0,
2011-06-15, 02:05:04,VALID,1003.5,VALID,0,VALID,77.9061,VALID,0,VALID,27.3454,VALID,272,VALID,0,
2011-06-15, 02:06:04,VALID,1003.5,VALID,0,VALID,78.0816,VALID,0,VALID,27.3433,VALID,234,VALID,0,
2011-06-15, 02:07:04,VALID,1003.47,VALID,0,VALID,78.2799,VALID,0,VALID,27.3844,VALID,223,VALID,0,
2011-06-15, 02:08:04,VALID,1003.43,VALID,0,VALID,78.5622,VALID,0,VALID,27.3628,VALID,277,VALID,0,
2011-06-15, 02:09:04,VALID,1003.43,VALID,0,VALID,79.1573,VALID,0,VALID,27.3844,VALID,229,VALID,0,
2011-06-15, 02:10:04,VALID,1003.42,VALID,0,VALID,79.5997,VALID,0,VALID,27.3865,VALID,215,VALID,0,
2011-06-15, 02:11:04,VALID,1003.44,VALID,0,VALID,80.1185,VALID,0,VALID,27.3649,VALID,210,VALID,0,
2011-06-15, 02:12:04,VALID,1003.39,VALID,0,VALID,80.6373,VALID,0,VALID,27.3454,VALID,286,VALID,0,
2011-06-15, 02:13:04,VALID,1003.39,VALID,0,VALID,81.3849,VALID,0,VALID,27.3259,VALID,266,VALID,0,
2011-06-15, 02:14:04,VALID,1003.4,VALID,0,VALID,81.4154,VALID,0,VALID,27.3454,VALID,257,VALID,0,
2011-06-15, 02:15:04,VALID,1003.4,VALID,0,VALID,81.5756,VALID,0,VALID,27.3649,VALID,295,VALID,0,
2011-06-15, 02:16:04,VALID,1003.39,VALID,0,VALID,82.0944,VALID,0,VALID,27.3454,VALID,295,VALID,0,
2011-06-15, 02:17:04,VALID,1003.38,VALID,0,VALID,82.7047,VALID,0,VALID,27.3454,VALID,298,VALID,0,
2011-06-15, 02:18:04,VALID,1003.4,VALID,0,VALID,82.6971,VALID,0,VALID,27.3454,VALID,264,VALID,0,
2011-06-15, 02:19:04,VALID,1003.37,VALID,0,VALID,82.4148,VALID,0,VALID,27.3238,VALID,263,VALID,0,
2011-06-15, 02:20:04,VALID,1003.35,VALID,0,VALID,82.5063,VALID,0,VALID,27.3238,VALID,191,VALID,0,
2011-06-15, 02:21:04,VALID,1003.34,VALID,0,VALID,82.636,VALID,0,VALID,27.3454,VALID,298,VALID,0,
2011-06-15, 02:22:04,VALID,1003.38,VALID,0,VALID,83.1624,VALID,0,VALID,27.3844,VALID,256,VALID,0,
2011-06-15, 02:23:04,VALID,1003.31,VALID,0,VALID,82.7734,VALID,0,VALID,27.3628,VALID,276,VALID,0,
2011-06-15, 02:24:04,VALID,1003.36,VALID,0,VALID,82.2927,VALID,0,VALID,27.3844,VALID,217,VALID,0,
2011-06-15, 02:25:04,VALID,1003.34,VALID,0,VALID,82.7123,VALID,0,VALID,27.3844,VALID,211,VALID,0,
2011-06-15, 02:26:04,VALID,1003.34,VALID,0,VALID,83.315,VALID,0,VALID,27.3649,VALID,298,VALID,0,
2011-06-15, 02:27:04,VALID,1003.3,VALID,0,VALID,83.46,VALID,0,VALID,27.3433,VALID,275,VALID,0,
2011-06-15, 02:28:04,VALID,1003.3,VALID,0,VALID,83.2463,VALID,0,VALID,27.3454,VALID,256,VALID,0,
2011-06-15, 02:29:04,VALID,1003.28,VALID,0,VALID,82.0715,VALID,0,VALID,27.3454,VALID,265,VALID,0,
2011-06-15, 02:30:04,VALID,1003.27,VALID,0,VALID,81.4078,VALID,0,VALID,27.3454,VALID,224,VALID,0,
2011-06-15, 02:31:04,VALID,1003.24,VALID,0,VALID,81.2399,VALID,0,VALID,27.3649,VALID,273,VALID,0,
2011-06-15, 02:32:04,VALID,1003.25,VALID,0,VALID,80.1109,VALID,0,VALID,27.4059,VALID,265,VALID,0,
2011-06-15, 02:33:04,VALID,1003.21,VALID,0,VALID,80.2329,VALID,0,VALID,27.4039,VALID,237,VALID,0,
2011-06-15, 02:34:04,VALID,1003.12,VALID,0,VALID,79.6684,VALID,0,VALID,27.3628,VALID,275,VALID,0,
2011-06-15, 02:35:04,VALID,1003.23,VALID,0,VALID,79.4472,VALID,0,VALID,27.4039,VALID,268,VALID,0,
2011-06-15, 02:36:04,VALID,1003.24,VALID,0,VALID,79.943,VALID,0,VALID,27.4039,VALID,249,VALID,0,
2011-06-15, 02:37:04,VALID,1003.22,VALID,0,VALID,80.0651,VALID,0,VALID,27.4039,VALID,270,VALID,0,
2011-06-15, 02:38:04,VALID,1003.26,VALID,0,VALID,80.6068,VALID,0,VALID,27.4039,VALID,244,VALID,0,
2011-06-15, 02:39:04,VALID,1003.26,VALID,0,VALID,80.5152,VALID,0,VALID,27.4233,VALID,278,VALID,0,
2011-06-15, 02:40:04,VALID,1003.25,VALID,0,VALID,80.8585,VALID,0,VALID,27.4428,VALID,304,VALID,0,
2011-06-15, 02:41:04,VALID,1003.22,VALID,0,VALID,80.5533,VALID,0,VALID,27.4428,VALID,289,VALID,0,
2011-06-15, 02:42:04,VALID,1003.3,VALID,0,VALID,81.0187,VALID,0,VALID,27.4428,VALID,254,VALID,0,
2011-06-15, 02:43:04,VALID,1003.27,VALID,0,VALID,81.6824,VALID,0,VALID,27.4428,VALID,224,VALID,0,
2011-06-15, 02:44:04,VALID,1003.26,VALID,0,VALID,81.3925,VALID,0,VALID,27.4233,VALID,239,VALID,0,
2011-06-15, 02:45:04,VALID,1003.29,VALID,0,VALID,80.1795,VALID,0,VALID,27.4233,VALID,310,VALID,0,
2011-06-15, 02:46:04,VALID,1003.18,VALID,0,VALID,79.5387,VALID,0,VALID,27.4233,VALID,264,VALID,0,
2011-06-15, 02:47:04,VALID,1003.24,VALID,0,VALID,79.5616,VALID,0,VALID,27.4428,VALID,239,VALID,0,
2011-06-15, 02:48:04,VALID,1003.23,VALID,0,VALID,78.7529,VALID,0,VALID,27.4233,VALID,261,VALID,0,
2011-06-15, 02:49:04,VALID,1003.23,VALID,0,VALID,78.3867,VALID,0,VALID,27.4428,VALID,299,VALID,0,
2011-06-15, 02:50:04,VALID,1003.21,VALID,0,VALID,78.1884,VALID,0,VALID,27.4428,VALID,267,VALID,0,
2011-06-15, 02:51:04,VALID,1003.21,VALID,0,VALID,78.5393,VALID,0,VALID,27.4233,VALID,250,VALID,0,
2011-06-15, 02:52:04,VALID,1003.17,VALID,0,VALID,78.463,VALID,0,VALID,27.4428,VALID,247,VALID,0,
2011-06-15, 02:53:04,VALID,1003.16,VALID,0,VALID,78.2494,VALID,0,VALID,27.4428,VALID,274,VALID,0,
2011-06-15, 02:54:04,VALID,1003.13,VALID,0,VALID,78.6461,VALID,0,VALID,27.4428,VALID,265,VALID,0,
2011-06-15, 02:55:04,VALID,1003.14,VALID,0,VALID,79.3938,VALID,0,VALID,27.4428,VALID,276,VALID,0,
2011-06-15, 02:56:04,VALID,1003.18,VALID,0,VALID,80.1338,VALID,0,VALID,27.4623,VALID,271,VALID,0,
2011-06-15, 02:57:04,VALID,1003.15,VALID,0,VALID,80.622,VALID,0,VALID,27.4428,VALID,245,VALID,0,
2011-06-15, 02:58:04,VALID,1003.19,VALID,0,VALID,81.0111,VALID,0,VALID,27.4233,VALID,268,VALID,0,
2011-06-15, 02:59:04,VALID,1003.14,VALID,0,VALID,81.8045,VALID,0,VALID,27.4018,VALID,239,VALID,0,
2011-06-15, 03:00:04,VALID,1003.11,VALID,0,VALID,82.6818,VALID,0,VALID,27.4449,VALID,244,VALID,0,
2011-06-15, 03:01:04,VALID,1003.14,VALID,0,VALID,83.3608,VALID,0,VALID,27.4039,VALID,230,VALID,0,
2011-06-15, 03:02:04,VALID,1003.06,VALID,0,VALID,82.7428,VALID,0,VALID,27.3844,VALID,273,VALID,0,
2011-06-15, 03:03:04,VALID,1003.08,VALID,0,VALID,81.5222,VALID,0,VALID,27.3844,VALID,253,VALID,0,
2011-06-15, 03:04:04,VALID,1003.08,VALID,0,VALID,81.5451,VALID,0,VALID,27.3844,VALID,258,VALID,0,
2011-06-15, 03:05:04,VALID,1003.05,VALID,0,VALID,82.3538,VALID,0,VALID,27.3844,VALID,252,VALID,0,
2011-06-15, 03:06:04,VALID,1003.08,VALID,0,VALID,82.5826,VALID,0,VALID,27.3844,VALID,305,VALID,0,
2011-06-15, 03:07:04,VALID,1003.04,VALID,0,VALID,81.6519,VALID,0,VALID,27.3844,VALID,243,VALID,0,
2011-06-15, 03:08:04,VALID,1003.1,VALID,0,VALID,81.7969,VALID,0,VALID,27.3649,VALID,204,VALID,0,
2011-06-15, 03:09:04,VALID,1003.08,VALID,0,VALID,81.9647,VALID,0,VALID,27.3454,VALID,248,VALID,0,
2011-06-15, 03:10:04,VALID,1003.11,VALID,0,VALID,82.163,VALID,0,VALID,27.3454,VALID,270,VALID,0,
2011-06-15, 03:11:04,VALID,1003.12,VALID,0,VALID,81.7587,VALID,0,VALID,27.3238,VALID,292,VALID,0,
2011-06-15, 03:12:04,VALID,1003.16,VALID,0,VALID,81.6672,VALID,0,VALID,27.3454,VALID,288,VALID,0,
2011-06-15, 03:13:04,VALID,1003.19,VALID,0,VALID,81.2552,VALID,0,VALID,27.3238,VALID,208,VALID,0,
2011-06-15, 03:14:04,VALID,1003.16,VALID,0,VALID,81.4154,VALID,0,VALID,27.3649,VALID,270,VALID,0,
2011-06-15, 03:15:04,VALID,1003.18,VALID,0,VALID,81.5985,VALID,0,VALID,27.3649,VALID,243,VALID,0,
2011-06-15, 03:16:04,VALID,1003.17,VALID,0,VALID,81.6748,VALID,0,VALID,27.3259,VALID,192,VALID,0,
2011-06-15, 03:17:04,VALID,1003.17,VALID,0,VALID,81.1408,VALID,0,VALID,27.367,VALID,293,VALID,0,
2011-06-15, 03:18:04,VALID,1003.15,VALID,0,VALID,80.8509,VALID,0,VALID,27.3259,VALID,258,VALID,0,
2011-06-15, 03:19:04,VALID,1003.22,VALID,0,VALID,81.156,VALID,0,VALID,27.3649,VALID,306,VALID,0,
2011-06-15, 03:20:04,VALID,1003.24,VALID,0,VALID,81.1865,VALID,0,VALID,27.3454,VALID,274,VALID,0,
2011-06-15, 03:21:04,VALID,1003.27,VALID,0,VALID,81.6519,VALID,0,VALID,27.3454,VALID,255,VALID,0,
2011-06-15, 03:22:04,VALID,1003.27,VALID,0,VALID,81.6595,VALID,0,VALID,27.3064,VALID,265,VALID,0,
2011-06-15, 03:23:04,VALID,1003.29,VALID,0,VALID,81.568,VALID,0,VALID,27.3064,VALID,259,VALID,0,
2011-06-15, 03:24:04,VALID,1003.27,VALID,0,VALID,81.7358,VALID,0,VALID,27.3259,VALID,127,VALID,0,
2011-06-15, 03:25:04,VALID,1003.25,VALID,0,VALID,81.1637,VALID,0,VALID,27.3064,VALID,244,VALID,0,
2011-06-15, 03:26:04,VALID,1003.26,VALID,0,VALID,80.8051,VALID,0,VALID,27.3259,VALID,270,VALID,0,
2011-06-15, 03:27:04,VALID,1003.33,VALID,0,VALID,81.1408,VALID,0,VALID,27.3454,VALID,261,VALID,0,
2011-06-15, 03:28:04,VALID,1003.3,VALID,0,VALID,81.3315,VALID,0,VALID,27.3454,VALID,273,VALID,0,
2011-06-15, 03:29:04,VALID,1003.3,VALID,0,VALID,80.4771,VALID,0,VALID,27.4039,VALID,274,VALID,0,
2011-06-15, 03:30:04,VALID,1003.29,VALID,0,VALID,80.3703,VALID,0,VALID,27.4233,VALID,258,VALID,0,
2011-06-15, 03:31:04,VALID,1003.32,VALID,0,VALID,80.7517,VALID,0,VALID,27.4233,VALID,212,VALID,0,
2011-06-15, 03:32:04,VALID,1003.26,VALID,0,VALID,80.8966,VALID,0,VALID,27.4039,VALID,283,VALID,0,
2011-06-15, 03:33:04,VALID,1003.3,VALID,0,VALID,81.2552,VALID,0,VALID,27.3844,VALID,259,VALID,0,
2011-06-15, 03:34:04,VALID,1003.31,VALID,0,VALID,81.7282,VALID,0,VALID,27.3433,VALID,298,VALID,0,
2011-06-15, 03:35:04,VALID,1003.34,VALID,0,VALID,81.6824,VALID,0,VALID,27.3649,VALID,266,VALID,0,
2011-06-15, 03:36:04,VALID,1003.33,VALID,0,VALID,81.6519,VALID,0,VALID,27.3844,VALID,277,VALID,0,
2011-06-15, 03:37:04,VALID,1003.34,VALID,0,VALID,81.2018,VALID,0,VALID,27.3844,VALID,247,VALID,0,
2011-06-15, 03:38:04,VALID,1003.36,VALID,0,VALID,81.2705,VALID,0,VALID,27.4059,VALID,261,VALID,0,
2011-06-15, 03:39:04,VALID,1003.35,VALID,0,VALID,80.7212,VALID,0,VALID,27.3844,VALID,254,VALID,0,
2011-06-15, 03:40:04,VALID,1003.4,VALID,0,VALID,81.034,VALID,0,VALID,27.3865,VALID,239,VALID,0,
2011-06-15, 03:41:04,VALID,1003.38,VALID,0,VALID,80.9272,VALID,0,VALID,27.3649,VALID,237,VALID,0,
2011-06-15, 03:42:04,VALID,1003.4,VALID,0,VALID,80.9729,VALID,0,VALID,27.3454,VALID,275,VALID,0,
2011-06-15, 03:43:04,VALID,1003.45,VALID,0,VALID,80.8661,VALID,0,VALID,27.3433,VALID,264,VALID,0,
2011-06-15, 03:44:04,VALID,1003.45,VALID,0,VALID,81.1331,VALID,0,VALID,27.3649,VALID,252,VALID,0,
2011-06-15, 03:45:04,VALID,1003.44,VALID,0,VALID,81.3925,VALID,0,VALID,27.3454,VALID,287,VALID,0,
2011-06-15, 03:46:04,VALID,1003.5,VALID,0,VALID,81.7663,VALID,0,VALID,27.3259,VALID,220,VALID,0,
2011-06-15, 03:47:04,VALID,1003.45,VALID,0,VALID,81.6138,VALID,0,VALID,27.2849,VALID,283,VALID,0,
2011-06-15, 03:48:04,VALID,1003.49,VALID,0,VALID,81.5832,VALID,0,VALID,27.2675,VALID,264,VALID,0,
2011-06-15, 03:49:04,VALID,1003.53,VALID,0,VALID,81.6595,VALID,0,VALID,27.2675,VALID,224,VALID,0,
2011-06-15, 03:50:04,VALID,1003.57,VALID,0,VALID,80.8509,VALID,0,VALID,27.2869,VALID,266,VALID,0,
2011-06-15, 03:51:04,VALID,1003.68,VALID,0,VALID,80.828,VALID,0,VALID,27.2869,VALID,267,VALID,0,
2011-06-15, 03:52:04,VALID,1003.62,VALID,0,VALID,80.149,VALID,0,VALID,27.3259,VALID,249,VALID,0,
2011-06-15, 03:53:04,VALID,1003.66,VALID,0,VALID,79.8286,VALID,0.100563,VALID,27.2849,VALID,220,VALID,0,
2011-06-15, 03:54:04,VALID,1003.67,VALID,0,VALID,79.5158,VALID,0,VALID,27.2849,VALID,262,VALID,0,
2011-06-15, 03:55:04,VALID,1003.7,VALID,0,VALID,79.5845,VALID,0,VALID,27.3259,VALID,268,VALID,0,
2011-06-15, 03:56:04,VALID,1003.65,VALID,0,VALID,79.1802,VALID,0,VALID,27.3259,VALID,249,VALID,0,
2011-06-15, 03:57:04,VALID,1003.7,VALID,0,VALID,79.409,VALID,0,VALID,27.3454,VALID,237,VALID,0,
2011-06-15, 03:58:04,VALID,1003.69,VALID,0,VALID,79.7065,VALID,0,VALID,27.3044,VALID,302,VALID,0,
2011-06-15, 03:59:04,VALID,1003.68,VALID,0,VALID,79.6837,VALID,0,VALID,27.3064,VALID,279,VALID,0,